Terug naar catalogus

STARLINK-35775

ActiefCommunicatieVLEO
NORAD 67038·PAYLOAD·🇺🇸 United States

Gelanceerd Dec 11, 2025 vanaf Cape Canaveral Space Force Station

Loading…

Volgende Passages (komende 24 uur)

TLE

VersSource: CelesTrak SupGP

Epoch: Sep 15, 2026, 04:10 UTC

1 67038C 25294J   26258.17409722 -.00143310  00000+0 -51896-2 0  2583
2 67038  43.0031  47.7514 0001323 268.1929 352.3469 15.27657802    17

Volg STARLINK-35775 in realtime met AllMySat

Download on the App Store